CDT,Max TemperatureF,Mean TemperatureF,Min TemperatureF,Max Dew PointF,MeanDew PointF,Min DewpointF,Max Humidity, Mean Humidity, Min Humidity, Max Sea Level PressureIn, Mean Sea Level PressureIn, Min Sea Level PressureIn, Max VisibilityMiles, Mean VisibilityMiles, Min VisibilityMiles, Max Wind SpeedMPH, Mean Wind SpeedMPH, Max Gust SpeedMPH,PrecipitationIn, CloudCover, Events, WindDirDegrees
2013-3-1,48,39,29,31,28,24,92,69,45,30.19,30.14,30.09,10,10,8,17,6,25,0.00,4,,340
2013-3-2,39,33,27,28,24,20,85,69,52,30.26,30.22,30.16,10,9,6,20,7,24,T,6,Snow,332
2013-3-3,53,38,22,28,21,16,88,56,24,30.28,30.19,30.10,10,10,10,10,3,20,0.00,0,,178
2013-3-4,71,53,34,54,40,26,82,58,33,30.09,29.97,29.86,10,10,10,27,13,37,0.00,2,,172
2013-3-5,69,57,45,58,45,23,90,63,36,30.21,30.03,29.87,10,10,8,28,12,38,T,4,Rain,288
2013-3-6,53,43,33,29,26,22,75,55,35,30.34,30.29,30.22,10,10,10,21,8,24,0.00,0,,336
2013-3-7,60,47,33,34,30,27,82,56,29,30.38,30.30,30.25,10,10,10,10,3,14,0.00,0,,30
2013-3-8,70,51,32,41,35,31,92,59,25,30.33,30.25,30.16,10,10,9,9,2,14,0.00,0,,32
2013-3-9,75,61,47,54,41,25,78,48,17,30.19,30.07,29.97,10,9,6,24,9,30,0.00,0,,159
2013-3-10,77,65,53,61,56,51,100,77,54,29.99,29.90,29.81,10,6,1,33,12,44,2.06,8,Rain-Thunderstorm,252
2013-3-11,57,47,37,52,42,34,93,70,47,30.04,29.95,29.90,10,8,2,22,7,29,0.64,6,Rain,299
2013-3-12,64,49,33,38,33,28,96,62,27,30.23,30.14,30.04,10,10,9,16,4,21,0.00,0,,350
2013-3-13,59,48,37,35,27,19,92,58,23,30.42,30.35,30.24,10,10,10,21,7,28,0.00,0,,345
2013-3-14,68,51,34,37,29,24,75,50,24,30.45,30.36,30.25,10,10,10,10,3,14,0.00,0,,94
2013-3-15,78,61,43,44,40,35,76,52,27,30.24,30.16,30.04,10,10,8,17,9,40,0.00,0,,206
2013-3-16,79,65,51,53,48,46,89,61,32,30.05,29.98,29.89,10,10,10,21,11,26,0.00,0,,199
2013-3-17,78,64,50,58,54,48,93,69,45,29.98,29.89,29.77,10,10,7,20,9,24,T,3,,180
2013-3-18,84,68,52,64,60,49,93,72,51,29.99,29.82,29.72,10,8,1,29,11,39,0.97,7,Rain-Hail-Thunderstorm,204
2013-3-19,70,58,45,47,38,31,89,57,25,30.12,30.05,30.01,10,10,10,16,7,23,0.00,0,,42
2013-3-20,66,54,42,36,29,22,53,36,19,30.21,30.12,30.07,10,10,10,20,8,25,T,2,Rain,6
2013-3-21,60,49,38,34,27,19,85,57,28,30.09,30.00,29.88,10,10,10,14,6,20,T,3,,80
2013-3-22,54,48,42,46,41,31,89,65,41,29.95,29.88,29.83,10,8,2,14,8,20,0.45,8,Rain,91
2013-3-23,75,65,54,63,58,47,100,82,64,29.85,29.72,29.59,10,6,0,21,5,30,1.05,8,Fog-Rain-Thunderstorm,74
2013-3-24,58,49,39,57,48,27,100,75,49,30.02,29.74,29.60,10,6,0,22,12,43,0.06,6,Fog-Rain-Thunderstorm,291
2013-3-25,52,43,34,28,24,19,75,53,30,30.29,30.15,30.03,10,10,10,23,11,32,0.00,1,,322
2013-3-26,49,40,30,28,24,22,82,60,38,30.40,30.36,30.30,10,10,10,17,7,28,0.00,1,,321
2013-3-27,60,44,27,32,26,23,92,59,25,30.45,30.37,30.30,10,10,10,7,2,,0.00,0,,92
2013-3-28,70,52,33,38,32,29,89,56,23,30.37,30.30,30.23,10,10,10,9,2,21,0.00,0,,126
2013-3-29,75,60,44,47,41,37,82,56,29,30.30,30.22,30.15,10,10,10,18,5,22,0.00,3,,177
2013-3-30,73,62,51,58,52,48,100,72,44,30.17,30.08,29.98,10,9,1,22,7,29,0.02,3,Rain,188
2013-3-31,71,62,52,63,57,52,100,87,73,30.01,29.95,29.85,10,7,0,20,4,30,0.34,6,Fog-Rain-Thunderstorm,220